This is the latest recevied weather packets stored in our database for station/object KH6DH-13. If no packets are shown the sender has not sent any weather packets the latest 10 day(s).
| Time | Temp. | Humidity | Pressure | Rain* | Wind** | Luminosity | Snow |
|---|---|---|---|---|---|---|---|
| 1777967904 | 24.44° C | - | - | 0 mm | 1.34 m/s, 131° | - | - |
| 1777967303 | 23.89° C | - | - | 0 mm | 0.89 m/s, 59° | - | - |
| 1777966702 | 24.44° C | - | - | 0 mm | 0.89 m/s, 90° | - | - |
| 1777966101 | 23.89° C | - | - | 0 mm | 0.45 m/s, 138° | - | - |
| 1777965500 | 24.44° C | - | - | 0 mm | 1.34 m/s, 142° | - | - |
| 1777964899 | 24.44° C | - | - | 0 mm | 0.89 m/s, 115° | - | - |
| 1777964298 | 24.44° C | - | - | 0 mm | 1.34 m/s, 338° | - | - |
| 1777963697 | 24.44° C | - | - | 0 mm | 0.45 m/s, 330° | - | - |
| 1777963096 | 24.44° C | - | - | 0 mm | 0.89 m/s, 80° | - | - |
| 1777962495 | 25° C | - | - | 0 mm | 1.34 m/s, 353° | - | - |
| 1777961894 | 24.44° C | - | - | 0 mm | 0.45 m/s, 18° | - | - |
| 1777961293 | 25° C | - | - | 0 mm | 0.45 m/s, 135° | - | - |
| 1777960692 | 25° C | - | - | 0 mm | 1.34 m/s, 70° | - | - |
| 1777960091 | 25° C | - | - | 0 mm | 0 m/s | - | - |
| 1777959490 | 25° C | - | - | 0 mm | 0.89 m/s, 338° | - | - |
| 1777958888 | 25° C | - | - | 0 mm | 0.89 m/s, 24° | - | - |
| 1777958284 | 25° C | - | - | 0 mm | 1.79 m/s, 37° | - | - |
| 1777957683 | 25° C | - | - | 0 mm | 0 m/s | - | - |
| 1777957082 | 25° C | - | - | 0 mm | 1.34 m/s, 35° | - | - |
| 1777956481 | 26.11° C | - | - | 0 mm | 1.34 m/s, 28° | - | - |
| 1777955879 | 26.11° C | - | - | 0 mm | 2.24 m/s, 20° | - | - |
| 1777955278 | 26.67° C | - | - | 0 mm | 1.79 m/s, 75° | - | - |
| 1777954677 | 26.67° C | - | - | 0 mm | 1.34 m/s, 34° | - | - |
| 1777954076 | 28.33° C | - | - | 0 mm | 1.34 m/s, 83° | - | - |
| 1777953475 | 28.89° C | - | - | 0 mm | 2.24 m/s, 103° | - | - |
* Rain latest hour (hover to see other rain measurements)
** Current wind speed in m/s (hover to see current wind gust speed)